< < Back
Terminal Aerodrome Forecast


Current Version              Previous Versions:   1  2  3  4  5  6  7  8  9  

Terminal Aerodrome Forecast

124
FTUS42 KTAE 292322
TAFVLD
TAF
KVLD 292322Z 3000/3024 00000KT P6SM SKC
     FM301500 26007G15KT P6SM SCT050 PROB30 3020/3024 VRB15G25KT 3SM
      TSRA BKN035CB=

Latest METAR

861
SAUS70 KWBC 301400 RRK
MTRVLD
METAR KVLD 301353Z 19007KT 170V240 10SM CLR 16/08 A3026 RMK AO2 SLP254
T01560083


USA.gov is the U.S. government's official web portal to all federal, state and local government web resources and services.